ASTRA 2F

Last updated on Tue Sep 16 2025 00:02:47 GMT+0000 (Coordinated Universal Time)

1 38778U 12051A 25258.59012264 .00000133 00000+0 00000+0 0 9998 2 38778 0.0680 256.6104 0004134 314.1517 24.6599 1.00273075 38389
UTC large
Height (km)
Speed (km/s)
/
Latitude / Longitude
Inclination (degrees)
Orbital Period (minutes)
Azimuth
Elevation
Range (km)
Doppler Factor

Next 0 passes for location: London (51.5072 / 0.1276)

Sorry there are no passes over London.